Location: Agva Burnu
(36.5783°N, 30.5858°E)
Time: 15:09:47
(UTC+00:00)

Daily predictions for brighter satellites

Satellite Brightness Start Highest point End
(mag) Time Altitude Azimuth Time Altitude Azimuth Time Altitude Azimuth
Cosmos 2058 Rocket 3.1 17:42:28 10° N 17:46:59 69° E 17:51:25 10° SSE
USA 186 2.4 17:48:08 10° S 17:51:27 59° W 17:54:43 10° NNW
Okean 1-7 Rocket 4.1 17:49:43 10° SSW 17:54:15 67° W 17:58:47 10° N
DMSP B5D2-2 4.0 17:50:12 10° NNE 17:55:26 77° ESE 18:00:37 10° S
Cosmos 2227 4.3 17:51:49 10° NNW 17:57:38 90° ENE 18:03:22 10° SSE
Ariane Rocket 3.5 17:53:13 10° S 17:58:16 65° WSW 18:03:21 10° NNW
Cosmos 1244 Rocket 4.5 17:52:43 10° S 17:58:49 76° E 18:04:59 10° N
Cosmos 1626 Rocket 3.7 17:54:31 10° S 17:58:50 55° E 18:03:12 10° NNE
OAO 3 Rocket 3.2 17:57:58 10° W 18:02:50 75° S 18:07:47 10° E
FREGAT/IRIS 4.0 18:04:12 10° SSW 18:06:39 32° W 18:09:05 10° NNW
SJ 16-02 4.4 18:06:46 10° WNW 18:08:02 11° W 18:09:18 10° WSW
Resurs 1-3 3.7 18:06:19 10° SSE 18:10:39 65° ENE 18:15:00 10° N
H-2A R/B 3.8 18:07:22 10° SSW 18:12:14 33° W 18:17:08 10° NNW
Cosmos 1125 Rocket 3.8 18:07:59 10° N 18:13:07 52° ENE 18:17:45 13° SE
BREEZE M DEB (TANK) 4.4 18:12:59 10° SSE 18:15:47 19° ESE 18:21:26 10° ENE
Cosmos 2322 Rocket 2.6 18:11:03 10° SSW 18:16:36 68° WNW 18:22:12 10° NNE
Cosmos 2237 4.2 18:13:28 10° S 18:19:08 69° ESE 18:24:50 10° NNE
SPOT 3 Rocket 3.6 18:14:29 10° SSE 18:19:41 84° ENE 18:24:56 10° NNW
Cosmos 1300 3.7 18:16:54 10° NNW 18:20:35 46° W 18:24:14 10° SSW
Cosmos 2298 Rocket 4.3 18:16:50 10° NNW 18:22:09 71° WSW 18:27:26 10° S
OAO 2 Rocket 3.5 18:19:39 10° WSW 18:24:52 61° SSE 18:30:07 10° E
SJ-6B 4.5 18:25:05 10° SSW 18:28:37 32° W 18:32:14 10° NNW
Cosmos 1825 Rocket 4.1 18:33:11 18° SSE 18:36:04 39° E 18:40:13 10° NNE
COSMOS 2428 3.7 18:33:39 17° SE 18:36:27 26° ESE 18:41:01 10° NE
Cosmos 1461 3.3 18:33:47 10° NNW 18:38:32 78° WSW 18:41:51 19° SSE
Geosat 4.0 18:34:37 16° SSE 18:38:44 83° WSW 18:43:47 10° NNW
Cosmos 1455 2.6 18:36:14 10° N 18:39:57 46° E 18:41:50 25° SE
SL-24 R/B - RUBIN 2 4.3 18:34:31 10° SSW 18:40:12 65° ESE 18:46:35 10° NE
Cosmos 2322 3.9 18:34:48 10° S 18:40:17 50° ESE 18:45:47 10° NNE
Cosmos 1703 3.4 18:40:05 20° SSE 18:42:28 50° E 18:46:14 10° NNE
NOSS 3-3 (A) 4.2 18:37:54 10° S 18:43:08 40° ESE 18:48:49 10° NE
NOSS 3-3 (C) 4.2 18:38:01 10° S 18:43:15 39° ESE 18:48:56 10° NE
Cosmos 1709 Rocket 4.3 18:39:38 16° SSE 18:44:25 47° E 18:50:26 10° NNE
Cosmos 1812 Rocket 3.5 18:43:40 10° N 18:48:01 89° ESE 18:50:59 20° S
Cosmos 783 Rocket 4.4 18:42:56 10° SSW 18:48:11 78° ESE 18:53:25 10° NNE
Cosmos 1602 Rocket 4.5 18:45:10 10° SSW 18:49:24 49° W 18:53:43 10° N
Delta 2 Rocket 2.6 18:46:26 10° W 18:49:51 77° S 18:51:17 31° E
MetOp-B 4.1 18:46:27 20° SSE 18:50:09 70° ENE 18:55:30 10° N
Cosmos 2237 Rocket 4.2 18:51:26 11° E 18:51:26 11° E 18:52:17 10° E
Nadezhda 1 Rocket 4.0 18:44:56 10° N 18:51:22 80° E 18:56:23 17° S
Atlas Centaur 2 2.7 18:45:59 10° WSW 18:51:33 50° S 18:56:13 20° ESE
Cosmos 2333 4.2 18:46:32 10° S 18:52:03 61° ESE 18:57:38 10° NNE
Cosmos 2219 Rocket 2.6 18:49:04 18° SSE 18:52:43 40° ESE 18:57:55 10° NE
Cosmos 2263 Rocket 3.6 18:48:10 10° NW 18:53:04 33° WSW 18:57:57 10° SSW
Terra 3.6 18:52:47 15° E 18:54:21 17° ENE 18:57:26 10° NNE
Cosmos 2360 Rocket 2.7 18:48:58 10° SSW 18:54:32 63° WNW 19:00:09 10° NNE
IGS 5A 3.5 18:59:07 33° SE 19:00:48 60° ENE 19:04:53 10° N
DELTA 2 R/B (1) 3.7 18:55:58 10° SW 19:01:19 50° SSE 19:06:42 10° ENE
Cosmos 2333 Rocket 2.3 18:57:31 15° S 19:02:09 54° ESE 19:07:43 10° NNE
OFEQ 5 4.3 19:03:25 57° E 19:03:54 88° N 19:06:33 10° W
OAO 1 Rocket 4.3 19:04:31 10° W 19:09:50 76° S 19:12:44 27° ESE
Resurs 01 Rocket 2.8 19:08:07 14° SSW 19:11:30 37° W 19:15:36 10° NNW
Cosmos 773 Rocket 3.9 19:09:15 12° SSW 19:14:10 87° ESE 19:19:30 10° NNE
Cosmos 1315 Rocket 4.2 19:14:57 10° NNE 19:18:24 25° ENE 19:18:31 25° ENE
ERS-1 Rocket 3.3 19:16:52 36° SE 19:18:32 51° ENE 19:23:24 10° N
Cosmos-2242 2.9 19:16:30 10° N 19:20:52 89° E 19:22:14 44° S
USA 215 3.3 19:15:48 10° NE 19:22:22 81° NW 19:28:53 10° SW
Cosmos 2221 4.2 19:22:33 10° NNE 19:25:38 19° ENE 19:25:38 19° ENE
Meteor 1-11 4.1 19:23:17 27° S 19:26:30 85° E 19:32:12 10° N
ATLAS 5 CENTAUR R/B 3.8 19:23:58 10° WSW 19:27:24 26° NW 19:31:09 10° N
Cosmos 2278 Rocket 3.9 19:25:17 10° N 19:29:17 19° NE 19:31:19 16° E
ATLAS CENTAUR R/B 4.3 19:29:12 10° WSW 19:30:34 12° SW 19:30:59 12° SW
USA 245 3.6 19:30:59 42° WSW 19:31:21 44° W 19:34:53 10° NNW
Cosmos 1844 Rocket 2.6 19:29:05 10° NNW 19:34:39 78° WSW 19:36:36 42° S
SPOT 5 3.0 19:34:42 48° SE 19:35:58 66° ENE 19:40:50 10° N
H-2A ROCKET BODY 4.1 19:32:55 10° WSW 19:38:50 44° S 20:05:38 10° ESE
Spot 2 Rocket 4.1 19:36:33 29° SSW 19:38:52 50° W 19:43:49 10° NNW
USA 81 4.0 19:39:13 41° S 19:41:07 89° W 19:46:25 10° N
Cosmos 1400 Rocket 3.4 19:37:32 10° NNW 19:41:22 49° W 19:42:04 43° SW
BREEZE-M DEB (TANK) 3.7 19:37:59 10° WSW 19:43:43 46° NW 19:45:23 18° NNE
Cosmos 2074 Rocket 4.1 19:44:36 44° SE 19:46:09 56° E 19:52:13 10° NNE
OAO 3 Rocket 3.4 19:41:28 10° W 19:46:11 52° SSW 19:46:11 52° SSW
Cosmos 2181 Rocket 3.9 19:40:58 10° N 19:47:19 83° E 19:49:24 45° SSE
Cosmos 2058 4.4 19:48:49 25° ENE 19:48:49 25° ENE 19:51:17 10° NNE
SPOT 1/Viking Rocket 4.2 19:51:15 34° SSW 19:53:02 49° W 19:58:02 10° NNW
Cosmos 1680 Rocket 4.2 19:55:25 38° E 19:55:25 38° E 19:59:47 10° NNE
VEP-3 3.9 19:58:47 10° WSW 20:18:55 - ESE 20:03:43 34° S
BREEZE-M R/B 4.0 19:55:34 10° NW 20:05:12 65° NNE 20:06:41 46° E
Cosmos 2344 3.6 20:06:06 46° SSE 20:07:29 51° ESE 20:14:47 10° NE
OAO 2 Rocket 3.3 20:04:18 10° W 20:09:32 75° SSW 20:09:32 75° SSW
Cosmos 2084 4.1 20:07:26 10° NNW 20:11:33 48° NE 20:11:33 48° NE
Cosmos 923 Rocket 3.8 20:12:02 77° SE 20:12:17 80° ESE 20:17:34 10° NNE
Cosmos 1842 Rocket 3.7 20:07:59 10° N 20:11:52 69° NNE 20:11:52 69° NNE
Cosmos 1980 3.5 20:15:08 72° SSE 20:15:33 76° ESE 20:21:12 10° NNE
COSMOS 2428 3.9 20:15:32 12° SW 20:20:27 39° WNW 20:25:45 10° N
ATLAS CENTAUR R/B 2.5 20:19:56 10° NNW 20:22:16 37° NNW 20:22:16 37° NNW
NOSS 0 Rocket 4.0 20:23:36 43° SW 20:25:41 74° WNW 20:31:52 10° NNE
Cosmos 1610 Rocket 4.4 20:26:38 67° SSE 20:27:28 78° E 20:33:50 10° N
Terra 2.5 20:31:41 44° W 20:31:42 44° W 20:36:15 10° NNW
Cosmos 2237 Rocket 2.1 20:33:12 70° SW 20:33:50 81° WNW 20:39:34 10° NNE
Cosmos 1869 4.4 20:30:55 10° NNW 20:33:50 44° NW 20:33:50 44° NW
Cosmos 2219 Rocket 4.1 20:32:12 10° WSW 20:36:46 25° WNW 20:41:22 10° N
Atlas Centaur 2 3.4 20:34:23 10° W 20:38:47 36° SW 20:38:47 36° SW
Cosmos 2333 Rocket 4.5 20:42:36 10° WSW 20:46:45 20° NW 20:50:57 10° N
DELTA 2 R/B (1) 3.7 20:42:05 10° W 20:47:41 74° NNW 20:49:11 49° ENE
Thor Agena Rocket 3.6 20:48:04 10° N 20:52:43 72° NNW 20:52:43 72° NNW
ATLAS 2AS CENTAUR R/B 3.2 20:50:08 10° NNW 20:57:22 51° NE 20:59:01 43° E
MOS 1-B Rocket 4.1 20:51:07 10° NNE 20:58:34 90° WNW 20:59:26 71° SSW
Cosmos 2221 4.2 20:59:29 10° NNW 21:02:29 27° WNW 21:02:29 27° WNW
Cosmos 1371 Rocket 4.4 20:59:19 10° N 21:03:55 57° NE 21:03:55 57° NE
Cosmos 2218 Rocket 4.4 21:06:08 49° E 21:06:08 49° E 21:11:56 10° NNE
Cosmos 2366 rocket 4.4 21:11:55 52° E 21:11:55 52° E 21:17:47 10° NNE
Cosmos 2278 Rocket 2.6 21:08:12 10° NNW 21:13:09 54° W 21:13:09 54° W
SL-16 R/B 2.4 21:18:56 66° NE 21:18:56 66° NE 21:23:49 10° NNE
Gblst 52 Del rocket 4.4 21:14:36 10° NW 21:20:33 87° N 21:20:33 87° N
Cosmos 1943 Rocket 4.0 21:17:42 10° N 21:21:56 21° NE 21:23:11 20° ENE
Cosmos 2341 Rocket 4.1 21:26:54 66° W 21:27:03 67° W 21:33:15 10° N
Cosmos 2056 Rocket 3.9 21:23:04 10° NNW 21:27:39 64° NNW 21:27:39 64° NNW
USA 267 3.1 21:34:05 80° SW 21:34:07 80° SW 21:40:43 10° NW
Meteor 2-3 Rocket 4.0 21:38:45 61° NE 21:38:45 61° NE 21:43:33 10° NNE
SL-8 Rocket 4.1 21:46:22 63° WNW 21:46:22 63° WNW 21:52:23 10° N
Meteor 1-26 Rocket 4.5 21:47:28 10° N 21:52:58 67° NE 21:52:58 67° NE
COSMOS 2455 3.9 21:48:42 10° NNW 21:54:17 38° NE 21:55:19 35° ENE
Cosmos 1452 Rocket 4.3 21:50:25 10° N 21:54:48 47° NE 21:54:48 47° NE
ALOS 2 4.3 21:58:03 29° NW 21:58:03 29° NW 22:00:25 10° NNW
SL-08 R/B 4.5 22:01:52 85° NE 22:01:52 85° NE 22:08:09 10° N
Cosmos 1727 Rocket 4.0 21:57:19 10° N 22:03:21 76° ENE 22:03:21 76° ENE
Cosmos 2369 Rocket 3.4 22:01:24 10° N 22:06:24 32° ENE 22:07:05 31° ENE
SeaSat 1 4.4 22:09:30 10° NE 22:11:34 19° ENE 22:11:34 19° ENE
Cosmos 371 Rocket 4.4 22:08:36 10° NNW 22:11:46 41° NNW 22:11:46 41° NNW
NOSS 3-4 (A) 4.4 22:13:29 10° NW 22:19:47 46° WSW 22:19:47 46° WSW
NOSS 3-4 (C) 4.4 22:13:35 10° NW 22:19:55 46° WSW 22:19:55 46° WSW
Helios 1B rocket 4.3 22:16:59 10° NNE 22:19:04 29° NNE 22:19:04 29° NNE
DELTA 2 R/B (1) 4.5 22:28:52 10° WNW 22:36:23 41° ENE 22:40:03 10° E
CZ-2D R/B 3.8 22:33:43 10° NE 22:37:33 22° E 22:37:33 22° E
USA 32 4.4 22:43:50 60° NE 22:43:50 60° NE 22:48:18 10° N
RESURS DK-1 4.2 22:40:38 10° N 22:43:23 29° NNE 22:43:23 29° NNE
Lacrosse 5 4.0 22:48:42 17° E 22:48:42 17° E 22:50:30 10° ENE
ATLAS 2AS CENTAUR R/B 3.9 22:41:51 10° NW 22:46:25 27° W 22:46:25 27° W
Cosmos 44 Rocket 4.1 22:51:44 47° N 22:51:44 47° N 22:55:11 10° NNE
Cosmos 1943 3.3 22:56:06 67° NW 22:56:06 67° NW 23:01:26 10° NNE
Cosmos 1821 Rocket 4.5 23:05:53 45° WNW 23:05:53 45° WNW 23:11:41 10° N
Cosmos 1943 Rocket 2.9 23:00:30 10° NNW 23:04:40 43° WNW 23:04:40 43° WNW
Lacrosse 5 rocket 3.3 23:02:57 10° NNW 23:06:06 23° NE 23:06:18 23° NE
Cosmos 1633 Rocket 4.0 23:11:22 46° NNE 23:11:22 46° NNE 23:14:35 10° NNE
BREEZE-M DEB (TANK) 4.5 23:04:08 10° WSW 23:14:01 49° NNW 23:17:40 10° NE
Sich 1 4.3 23:15:28 36° NNW 23:15:28 36° NNW 23:18:17 10° N
Cosmos 2123 Rocket 3.8 23:08:56 10° N 23:15:09 86° W 23:15:27 81° SSW
Cosmos 1535 Rocket 4.5 23:15:24 67° WSW 23:15:42 68° W 23:22:02 10° N
Cosmos 1331 Rocket 4.3 23:19:14 10° NNW 23:23:39 57° NW 23:23:39 57° NW
Iridium 4 Rocket 3.6 23:28:48 79° S 23:29:12 90° E 23:35:00 10° N
SL-4 R/B 4.4 23:32:31 14° NNE 23:32:31 14° NNE 23:33:04 10° NNE
SL-16 R/B 2.7 23:31:34 46° SE 23:33:25 69° ENE 23:39:39 10° N
Cosmos 1605 Rocket 3.9 23:34:31 65° SW 23:35:15 72° W 23:41:35 10° N
CZ-4B R/B 4.0 23:31:56 10° NNE 23:36:53 49° E 23:37:13 48° ESE
IRAS Rocket 4.0 23:37:09 77° WSW 23:37:14 78° WSW 23:42:44 10° NNW
Cosmos 292 Rocket 4.1 23:34:02 10° N 23:38:47 59° ENE 23:39:09 57° E
COSMOS 2455 4.1 23:34:49 10° NW 23:38:24 27° W 23:38:24 27° W
CZ-4C R/B 3.0 23:32:36 10° NNW 23:40:13 88° WSW 23:45:18 27° SSE
Cosmos 1933 Rocket 4.0 23:43:16 56° ENE 23:43:16 56° ENE 23:47:12 10° NNE
BREEZE-M TANK 3.4 23:47:12 38° ENE 23:47:12 38° ENE 23:49:07 10° ENE
Cosmos 1607 4.2 23:45:31 49° W 23:46:42 57° WNW 23:52:52 10° NNE
Resurs 1-4 Rocket 2.0 23:43:02 10° N 23:48:22 76° WNW 23:48:44 72° WSW
Cosmos 2369 Rocket 3.4 23:45:27 10° NW 23:48:49 27° WNW 23:48:49 27° WNW
SeaSat 1 3.2 23:46:21 10° N 23:50:57 40° WNW 23:51:20 40° WNW
ISS -1.2 23:51:00 17° NNW 23:51:02 17° NNW 23:53:18 10° NNE
